SMAP

Last updated on Thu Oct 30 2025 00:02:31 GMT+0000 (Coordinated Universal Time)

1 40376U 15003A 25302.51557933 .00000781 00000+0 16015-3 0 9990 2 40376 98.1307 307.8708 0001802 91.8726 268.2682 14.63396048573886
UTC large
Height (km)
Speed (km/s)
/
Latitude / Longitude
Inclination (degrees)
Orbital Period (minutes)
Azimuth
Elevation
Range (km)
Doppler Factor

Next 0 passes for location: London (51.5072 / 0.1276)

Sorry there are no passes over London.